Location: Austin
(30.3000°N, 97.7500°W)
Time: 06:20:00
(UTC-06:00)

Cosmos 1867 - Pass Details

Date: 05 February 2026
Orbit: 777 x 797 km, 65.0° (Epoch: 15 February)

Event Time Altitude Azimuth Distance (km) Brightness Sun altitude
Exits shadow 05:23:35 36° 200° (SSW) 1,244 4.4 -25.2°
Drops below altitude 10° 05:27:02 10° 174° (S) 2,343 6.1 -24.5°
Sets 05:29:30 0° 169° (S) 3,265 7.0 -24.0°
